Year,Month,Day,Hour,Minute,Value (Times are PST for temperature in C)
2022,04,02,00,00,7.10
2022,04,02,00,01,7.10
2022,04,02,00,02,7.10
2022,04,02,00,03,7.10
2022,04,02,00,04,7.10
2022,04,02,00,05,7.10
2022,04,02,00,06,7.00
2022,04,02,00,07,7.10
2022,04,02,00,08,7.00
2022,04,02,00,09,7.00
2022,04,02,00,10,7.00
2022,04,02,00,11,7.00
2022,04,02,00,12,7.00
2022,04,02,00,13,7.00
2022,04,02,00,14,7.00
2022,04,02,00,15,6.90
2022,04,02,00,16,6.90
2022,04,02,00,17,6.90
2022,04,02,00,18,6.90
2022,04,02,00,19,6.90
2022,04,02,00,20,6.90
2022,04,02,00,21,6.80
2022,04,02,00,22,6.80
2022,04,02,00,23,6.80
2022,04,02,00,24,6.80
2022,04,02,00,25,6.80
2022,04,02,00,26,6.70
2022,04,02,00,27,6.70
2022,04,02,00,28,6.70
2022,04,02,00,29,6.70
2022,04,02,00,30,6.70
2022,04,02,00,31,6.70
2022,04,02,00,32,6.70
2022,04,02,00,33,6.70
2022,04,02,00,34,6.70
2022,04,02,00,35,6.70
2022,04,02,00,36,6.60
2022,04,02,00,37,6.60
2022,04,02,00,38,6.60
2022,04,02,00,39,6.60
2022,04,02,00,40,6.60
2022,04,02,00,41,6.60
2022,04,02,00,42,6.60
2022,04,02,00,43,6.60
2022,04,02,00,44,6.60
2022,04,02,00,45,6.60
2022,04,02,00,46,6.60
2022,04,02,00,47,6.60
2022,04,02,00,48,6.50
2022,04,02,00,49,6.60
2022,04,02,00,50,6.50
2022,04,02,00,51,6.50
2022,04,02,00,52,6.50
2022,04,02,00,53,6.50
2022,04,02,00,54,6.50
2022,04,02,00,55,6.50
2022,04,02,00,56,6.50
2022,04,02,00,57,6.50
2022,04,02,00,58,6.50
2022,04,02,00,59,6.50
2022,04,02,01,00,6.50
2022,04,02,01,01,6.40
2022,04,02,01,02,6.40
2022,04,02,01,03,6.40
2022,04,02,01,04,6.40
2022,04,02,01,05,6.40
2022,04,02,01,06,6.40
2022,04,02,01,07,6.40
2022,04,02,01,08,6.40
2022,04,02,01,09,6.30
2022,04,02,01,10,6.30
2022,04,02,01,11,6.30
2022,04,02,01,12,6.30
2022,04,02,01,13,6.30
2022,04,02,01,14,6.30
2022,04,02,01,15,6.30
2022,04,02,01,16,6.30
2022,04,02,01,17,6.30
2022,04,02,01,18,6.30
2022,04,02,01,19,6.30
2022,04,02,01,20,6.30
2022,04,02,01,21,6.20
2022,04,02,01,22,6.20
2022,04,02,01,23,6.20
2022,04,02,01,24,6.20
2022,04,02,01,25,6.20
2022,04,02,01,26,6.20
2022,04,02,01,27,6.20
2022,04,02,01,28,6.20
2022,04,02,01,29,6.20
2022,04,02,01,30,6.20
2022,04,02,01,31,6.20
2022,04,02,01,32,6.20
2022,04,02,01,33,6.20
2022,04,02,01,34,6.20
2022,04,02,01,35,6.20
2022,04,02,01,36,6.20
2022,04,02,01,37,6.20
2022,04,02,01,38,6.20
2022,04,02,01,39,6.20
2022,04,02,01,40,6.10
2022,04,02,01,41,6.10
2022,04,02,01,42,6.10
2022,04,02,01,43,6.10
2022,04,02,01,44,6.10
2022,04,02,01,45,6.10
2022,04,02,01,46,6.10
2022,04,02,01,47,6.10
2022,04,02,01,48,6.10
2022,04,02,01,49,6.10
2022,04,02,01,50,6.00
2022,04,02,01,51,6.00
2022,04,02,01,52,6.00
2022,04,02,01,53,6.00
2022,04,02,01,54,6.00
2022,04,02,01,55,6.00
2022,04,02,01,56,6.00
2022,04,02,01,57,6.00
2022,04,02,01,58,6.00
2022,04,02,01,59,6.00
2022,04,02,02,00,5.90
2022,04,02,02,01,5.90
2022,04,02,02,02,5.90
2022,04,02,02,03,5.90
2022,04,02,02,04,5.90
2022,04,02,02,05,5.90
2022,04,02,02,06,5.90
2022,04,02,02,07,5.90
2022,04,02,02,08,5.90
2022,04,02,02,09,5.90
2022,04,02,02,10,5.90
2022,04,02,02,11,5.90
2022,04,02,02,12,5.90
2022,04,02,02,13,5.90
2022,04,02,02,14,5.90
2022,04,02,02,15,5.90
2022,04,02,02,16,5.90
2022,04,02,02,17,5.90
2022,04,02,02,18,5.90
2022,04,02,02,19,5.90
2022,04,02,02,20,5.80
2022,04,02,02,21,5.90
2022,04,02,02,22,5.90
2022,04,02,02,23,5.80
2022,04,02,02,24,5.80
2022,04,02,02,25,5.80
2022,04,02,02,26,5.80
2022,04,02,02,27,5.80
2022,04,02,02,28,5.80
2022,04,02,02,29,5.80
2022,04,02,02,30,5.80
2022,04,02,02,31,5.80
2022,04,02,02,32,5.80
2022,04,02,02,33,5.70
2022,04,02,02,34,5.70
2022,04,02,02,35,5.70
2022,04,02,02,36,5.70
2022,04,02,02,37,5.70
2022,04,02,02,38,5.70
2022,04,02,02,39,5.70
2022,04,02,02,40,5.70
2022,04,02,02,41,5.60
2022,04,02,02,42,5.60
2022,04,02,02,43,5.60
2022,04,02,02,44,5.60
2022,04,02,02,45,5.60
2022,04,02,02,46,5.60
2022,04,02,02,47,5.50
2022,04,02,02,48,5.50
2022,04,02,02,49,5.50
2022,04,02,02,50,5.50
2022,04,02,02,51,5.50
2022,04,02,02,52,5.50
2022,04,02,02,53,5.40
2022,04,02,02,54,5.40
2022,04,02,02,55,5.40
2022,04,02,02,56,5.40
2022,04,02,02,57,5.40
2022,04,02,02,58,5.40
2022,04,02,02,59,5.40
2022,04,02,03,00,5.30
2022,04,02,03,01,5.30
2022,04,02,03,02,5.30
2022,04,02,03,03,5.30
2022,04,02,03,04,5.30
2022,04,02,03,05,5.30
2022,04,02,03,06,5.30
2022,04,02,03,07,5.20
2022,04,02,03,08,5.20
2022,04,02,03,09,5.20
2022,04,02,03,10,5.20
2022,04,02,03,11,5.20
2022,04,02,03,12,5.10
2022,04,02,03,13,5.10
2022,04,02,03,14,5.10
2022,04,02,03,15,5.10
2022,04,02,03,16,5.10
2022,04,02,03,17,5.10
2022,04,02,03,18,5.00
2022,04,02,03,19,5.00
2022,04,02,03,20,5.00
2022,04,02,03,21,4.90
2022,04,02,03,22,4.90
2022,04,02,03,23,4.90
2022,04,02,03,24,4.90
2022,04,02,03,25,4.80
2022,04,02,03,26,4.80
2022,04,02,03,27,4.80
2022,04,02,03,28,4.80
2022,04,02,03,29,4.80
2022,04,02,03,30,4.80
2022,04,02,03,31,4.70
2022,04,02,03,32,4.70
2022,04,02,03,33,4.70
2022,04,02,03,34,4.70
2022,04,02,03,35,4.60
2022,04,02,03,36,4.60
2022,04,02,03,37,4.60
2022,04,02,03,38,4.60
2022,04,02,03,39,4.60
2022,04,02,03,40,4.50
2022,04,02,03,41,4.50
2022,04,02,03,42,4.50
2022,04,02,03,43,4.40
2022,04,02,03,44,4.40
2022,04,02,03,45,4.40
2022,04,02,03,46,4.40
2022,04,02,03,47,4.30
2022,04,02,03,48,4.30
2022,04,02,03,49,4.30
2022,04,02,03,50,4.30
2022,04,02,03,51,4.30
2022,04,02,03,52,4.20
2022,04,02,03,53,4.20
2022,04,02,03,54,4.10
2022,04,02,03,55,4.10
2022,04,02,03,56,4.10
2022,04,02,03,57,4.10
2022,04,02,03,58,4.10
2022,04,02,03,59,4.10
2022,04,02,04,00,4.00
2022,04,02,04,01,4.00
2022,04,02,04,02,4.00
2022,04,02,04,03,4.00
2022,04,02,04,04,4.00
2022,04,02,04,05,3.90
2022,04,02,04,06,3.90
2022,04,02,04,07,3.90
2022,04,02,04,08,3.90
2022,04,02,04,09,3.80
2022,04,02,04,10,3.80
2022,04,02,04,11,3.80
2022,04,02,04,12,3.80
2022,04,02,04,13,3.70
2022,04,02,04,14,3.70
2022,04,02,04,15,3.70
2022,04,02,04,16,3.70
2022,04,02,04,17,3.70
2022,04,02,04,18,3.70
2022,04,02,04,19,3.70
2022,04,02,04,20,3.70
2022,04,02,04,21,3.70
2022,04,02,04,22,3.70
2022,04,02,04,23,3.70
2022,04,02,04,24,3.70
2022,04,02,04,25,3.70
2022,04,02,04,26,3.70
2022,04,02,04,27,3.70
2022,04,02,04,28,3.70
2022,04,02,04,29,3.60
2022,04,02,04,30,3.60
2022,04,02,04,31,3.60
2022,04,02,04,32,3.60
2022,04,02,04,33,3.50
2022,04,02,04,34,3.50
2022,04,02,04,35,3.50
2022,04,02,04,36,3.50
2022,04,02,04,37,3.50
2022,04,02,04,38,3.50
2022,04,02,04,39,3.50
2022,04,02,04,40,3.50
2022,04,02,04,41,3.50
2022,04,02,04,42,3.50
2022,04,02,04,43,3.50
2022,04,02,04,44,3.50
2022,04,02,04,45,3.50
2022,04,02,04,46,3.40
2022,04,02,04,47,3.40
2022,04,02,04,48,3.40
2022,04,02,04,49,3.40
2022,04,02,04,50,3.40
2022,04,02,04,51,3.40
2022,04,02,04,52,3.40
2022,04,02,04,53,3.40
2022,04,02,04,54,3.40
2022,04,02,04,55,3.30
2022,04,02,04,56,3.30
2022,04,02,04,57,3.30
2022,04,02,04,58,3.30
2022,04,02,04,59,3.30
2022,04,02,05,00,3.20
2022,04,02,05,01,3.20
2022,04,02,05,02,3.20
2022,04,02,05,03,3.20
2022,04,02,05,04,3.20
2022,04,02,05,05,3.20
2022,04,02,05,06,3.10
2022,04,02,05,07,3.10
2022,04,02,05,08,3.10
2022,04,02,05,09,3.10
2022,04,02,05,10,3.00
2022,04,02,05,11,3.00
2022,04,02,05,12,3.00
2022,04,02,05,13,2.90
2022,04,02,05,14,2.90
2022,04,02,05,15,2.90
2022,04,02,05,16,2.90
2022,04,02,05,17,2.90
2022,04,02,05,18,2.80
2022,04,02,05,19,2.80
2022,04,02,05,20,2.80
2022,04,02,05,21,2.80
2022,04,02,05,22,2.80
2022,04,02,05,23,2.80
2022,04,02,05,24,2.80
2022,04,02,05,25,2.80
2022,04,02,05,26,2.70
2022,04,02,05,27,2.80
2022,04,02,05,28,2.70
2022,04,02,05,29,2.70
2022,04,02,05,30,2.70
2022,04,02,05,31,2.70
2022,04,02,05,32,2.70
2022,04,02,05,33,2.70
2022,04,02,05,34,2.70
2022,04,02,05,35,2.60
2022,04,02,05,36,2.60
2022,04,02,05,37,2.60
2022,04,02,05,38,2.60
2022,04,02,05,39,2.60
2022,04,02,05,40,2.60
2022,04,02,05,41,2.60
2022,04,02,05,42,2.50
2022,04,02,05,43,2.50
2022,04,02,05,44,2.50
2022,04,02,05,45,2.50
2022,04,02,05,46,2.50
2022,04,02,05,47,2.40
2022,04,02,05,48,2.40
2022,04,02,05,49,2.40
2022,04,02,05,50,2.40
2022,04,02,05,51,2.40
2022,04,02,05,52,2.40
2022,04,02,05,53,2.30
2022,04,02,05,54,2.30
2022,04,02,05,55,2.30
2022,04,02,05,56,2.30
2022,04,02,05,57,2.30
2022,04,02,05,58,2.30
2022,04,02,05,59,2.30
2022,04,02,06,00,2.30
2022,04,02,06,01,2.30
2022,04,02,06,02,2.20
2022,04,02,06,03,2.20
2022,04,02,06,04,2.20
2022,04,02,06,05,2.20
2022,04,02,06,06,2.20
2022,04,02,06,07,2.20
2022,04,02,06,08,2.20
2022,04,02,06,09,2.20
2022,04,02,06,10,2.20
2022,04,02,06,11,2.20
2022,04,02,06,12,2.10
2022,04,02,06,13,2.10
2022,04,02,06,14,2.20
2022,04,02,06,15,2.10
2022,04,02,06,16,2.10
2022,04,02,06,17,2.10
2022,04,02,06,18,2.10
2022,04,02,06,19,2.10
2022,04,02,06,20,2.10
2022,04,02,06,21,2.10
2022,04,02,06,22,2.10
2022,04,02,06,23,2.10
2022,04,02,06,24,2.10
2022,04,02,06,25,2.10
2022,04,02,06,26,2.10
2022,04,02,06,27,2.10
2022,04,02,06,28,2.10
2022,04,02,06,29,2.10
2022,04,02,06,30,2.10
2022,04,02,06,31,2.10
2022,04,02,06,32,2.10
2022,04,02,06,33,2.10
2022,04,02,06,34,2.00
2022,04,02,06,35,2.00
2022,04,02,06,36,2.00
2022,04,02,06,37,2.00
2022,04,02,06,38,2.00
2022,04,02,06,39,2.00
2022,04,02,06,40,2.00
2022,04,02,06,41,2.00
2022,04,02,06,42,2.00
2022,04,02,06,43,2.00
2022,04,02,06,44,2.00
2022,04,02,06,45,1.90
2022,04,02,06,46,1.90
2022,04,02,06,47,1.90
2022,04,02,06,48,1.90
2022,04,02,06,49,1.90
2022,04,02,06,50,1.90
2022,04,02,06,51,1.90
2022,04,02,06,52,1.90
2022,04,02,06,53,1.80
2022,04,02,06,54,1.80
2022,04,02,06,55,1.80
2022,04,02,06,56,1.80
2022,04,02,06,57,1.80
2022,04,02,06,58,1.80
2022,04,02,06,59,1.80
2022,04,02,07,00,1.80
2022,04,02,07,01,1.80
2022,04,02,07,02,1.80
2022,04,02,07,03,1.90
2022,04,02,07,04,1.90
2022,04,02,07,05,1.90
2022,04,02,07,06,1.90
2022,04,02,07,07,1.90
2022,04,02,07,08,1.90
2022,04,02,07,09,1.90
2022,04,02,07,10,1.90
2022,04,02,07,11,2.00
2022,04,02,07,12,2.00
2022,04,02,07,13,2.00
2022,04,02,07,14,2.00
2022,04,02,07,15,2.00
2022,04,02,07,16,2.00
2022,04,02,07,17,2.00
2022,04,02,07,18,2.00
2022,04,02,07,19,2.00
2022,04,02,07,20,2.00
2022,04,02,07,21,1.90
2022,04,02,07,22,1.90
2022,04,02,07,23,1.90
2022,04,02,07,24,1.90
2022,04,02,07,25,1.90
2022,04,02,07,26,1.90
2022,04,02,07,27,1.90
2022,04,02,07,28,1.90
2022,04,02,07,29,1.90
2022,04,02,07,30,1.90
2022,04,02,07,31,1.90
2022,04,02,07,32,1.90
2022,04,02,07,33,1.90
2022,04,02,07,34,2.00
2022,04,02,07,35,2.00
2022,04,02,07,36,2.10
2022,04,02,07,37,2.10
2022,04,02,07,38,2.20
2022,04,02,07,39,2.20
2022,04,02,07,40,2.20
2022,04,02,07,41,2.30
2022,04,02,07,42,2.30
2022,04,02,07,43,2.30
2022,04,02,07,44,2.30
2022,04,02,07,45,2.30
2022,04,02,07,46,2.40
2022,04,02,07,47,2.40
2022,04,02,07,48,2.40
2022,04,02,07,49,2.40
2022,04,02,07,50,2.40
2022,04,02,07,51,2.50
2022,04,02,07,52,2.50
2022,04,02,07,53,2.50
2022,04,02,07,54,2.50
2022,04,02,07,55,2.60
2022,04,02,07,56,2.60
2022,04,02,07,57,2.60
2022,04,02,07,58,2.60
2022,04,02,07,59,2.70
2022,04,02,08,00,2.70
2022,04,02,08,01,2.70
2022,04,02,08,02,2.80
2022,04,02,08,03,2.80
2022,04,02,08,04,2.90
2022,04,02,08,05,2.90
2022,04,02,08,06,3.00
2022,04,02,08,07,3.10
2022,04,02,08,08,3.10
2022,04,02,08,09,3.20
2022,04,02,08,10,3.30
2022,04,02,08,11,3.40
2022,04,02,08,12,3.50
2022,04,02,08,13,3.60
2022,04,02,08,14,3.60
2022,04,02,08,15,3.70
2022,04,02,08,16,3.70
2022,04,02,08,17,3.80
2022,04,02,08,18,3.80
2022,04,02,08,19,3.80
2022,04,02,08,20,3.90
2022,04,02,08,21,3.90
2022,04,02,08,22,4.00
2022,04,02,08,23,4.10
2022,04,02,08,24,4.10
2022,04,02,08,25,4.30
2022,04,02,08,26,4.40
2022,04,02,08,27,4.50
2022,04,02,08,28,4.60
2022,04,02,08,29,4.70
2022,04,02,08,30,4.80
2022,04,02,08,31,4.80
2022,04,02,08,32,4.90
2022,04,02,08,33,5.00
2022,04,02,08,34,5.00
2022,04,02,08,35,5.10
2022,04,02,08,36,5.10
2022,04,02,08,37,5.10
2022,04,02,08,38,5.20
2022,04,02,08,39,5.30
2022,04,02,08,40,5.40
2022,04,02,08,41,5.40
2022,04,02,08,42,5.50
2022,04,02,08,43,5.60
2022,04,02,08,44,5.80
2022,04,02,08,45,5.80
2022,04,02,08,46,5.90
2022,04,02,08,47,6.00
2022,04,02,08,48,6.10
2022,04,02,08,49,6.10
2022,04,02,08,50,6.20
2022,04,02,08,51,6.20
2022,04,02,08,52,6.20
2022,04,02,08,53,6.30
2022,04,02,08,54,6.30
2022,04,02,08,55,6.30
2022,04,02,08,56,6.30
2022,04,02,08,57,6.30
2022,04,02,08,58,6.30
2022,04,02,08,59,6.30
2022,04,02,09,00,6.40
2022,04,02,09,01,6.40
2022,04,02,09,02,6.50
2022,04,02,09,03,6.60
2022,04,02,09,04,6.60
2022,04,02,09,05,6.70
2022,04,02,09,06,6.70
2022,04,02,09,07,6.70
2022,04,02,09,08,6.80
2022,04,02,09,09,6.80
2022,04,02,09,10,6.80
2022,04,02,09,11,6.80
2022,04,02,09,12,6.80
2022,04,02,09,13,6.90
2022,04,02,09,14,6.90
2022,04,02,09,15,7.00
2022,04,02,09,16,7.00
2022,04,02,09,17,7.10
2022,04,02,09,18,7.10
2022,04,02,09,19,7.00
2022,04,02,09,20,7.10
2022,04,02,09,21,7.10
2022,04,02,09,22,7.20
2022,04,02,09,23,7.20
2022,04,02,09,24,7.30
2022,04,02,09,25,7.20
2022,04,02,09,26,7.20
2022,04,02,09,27,7.20
2022,04,02,09,28,7.20
2022,04,02,09,29,7.20
2022,04,02,09,30,7.20
2022,04,02,09,31,7.20
2022,04,02,09,32,7.20
2022,04,02,09,33,7.20
2022,04,02,09,34,7.20
2022,04,02,09,35,7.10
2022,04,02,09,36,7.10
2022,04,02,09,37,7.10
2022,04,02,09,38,7.10
2022,04,02,09,39,7.10
2022,04,02,09,40,7.20
2022,04,02,09,41,7.20
2022,04,02,09,42,7.20
2022,04,02,09,43,7.30
2022,04,02,09,44,7.30
2022,04,02,09,45,7.30
2022,04,02,09,46,7.30
2022,04,02,09,47,7.30
2022,04,02,09,48,7.30
2022,04,02,09,49,7.30
2022,04,02,09,50,7.30
2022,04,02,09,51,7.30
2022,04,02,09,52,7.40
2022,04,02,09,53,7.40
2022,04,02,09,54,7.50
2022,04,02,09,55,7.50
2022,04,02,09,56,7.60
2022,04,02,09,57,7.60
2022,04,02,09,58,7.70
2022,04,02,09,59,7.70
2022,04,02,10,00,7.70
2022,04,02,10,01,7.80
2022,04,02,10,02,7.80
2022,04,02,10,03,7.80
2022,04,02,10,04,7.80
2022,04,02,10,05,7.80
2022,04,02,10,06,7.80
2022,04,02,10,07,7.80
2022,04,02,10,08,7.80
2022,04,02,10,09,7.70
2022,04,02,10,10,7.70
2022,04,02,10,11,7.70
2022,04,02,10,12,7.80
2022,04,02,10,13,7.80
2022,04,02,10,14,7.80
2022,04,02,10,15,7.80
2022,04,02,10,16,7.80
2022,04,02,10,17,7.80
2022,04,02,10,18,7.80
2022,04,02,10,19,7.80
2022,04,02,10,20,7.80
2022,04,02,10,21,7.70
2022,04,02,10,22,7.70
2022,04,02,10,23,7.70
2022,04,02,10,24,7.70
2022,04,02,10,25,7.70
2022,04,02,10,26,7.70
2022,04,02,10,27,7.70
2022,04,02,10,28,7.70
2022,04,02,10,29,7.80
2022,04,02,10,30,7.80
2022,04,02,10,31,7.80
2022,04,02,10,32,7.80
2022,04,02,10,33,7.80
2022,04,02,10,34,7.80
2022,04,02,10,35,7.90
2022,04,02,10,36,7.90
2022,04,02,10,37,7.90
2022,04,02,10,38,7.90
2022,04,02,10,39,7.90
2022,04,02,10,40,7.90
2022,04,02,10,41,7.90
2022,04,02,10,42,7.90
2022,04,02,10,43,7.90
2022,04,02,10,44,7.90
2022,04,02,10,45,7.90
2022,04,02,10,46,7.90
2022,04,02,10,47,7.90
2022,04,02,10,48,7.90
2022,04,02,10,49,7.90
2022,04,02,10,50,7.90
2022,04,02,10,51,7.90
2022,04,02,10,52,7.90
2022,04,02,10,53,8.00
2022,04,02,10,54,8.00
2022,04,02,10,55,8.10
2022,04,02,10,56,8.10
2022,04,02,10,57,8.10
2022,04,02,10,58,8.10
2022,04,02,10,59,8.10
2022,04,02,11,00,8.10
2022,04,02,11,01,8.20
2022,04,02,11,02,8.20
2022,04,02,11,03,8.20
2022,04,02,11,04,8.10
2022,04,02,11,05,8.10
2022,04,02,11,06,8.00
2022,04,02,11,07,8.00
2022,04,02,11,08,7.90
2022,04,02,11,09,8.00
2022,04,02,11,10,8.00
2022,04,02,11,11,8.00
2022,04,02,11,12,8.00
2022,04,02,11,13,8.00
2022,04,02,11,14,8.10
2022,04,02,11,15,8.10
2022,04,02,11,16,8.10
2022,04,02,11,17,8.10
2022,04,02,11,18,8.20
2022,04,02,11,19,8.20
2022,04,02,11,20,8.20
2022,04,02,11,21,8.20
2022,04,02,11,22,8.20
2022,04,02,11,23,8.20
2022,04,02,11,24,8.20
2022,04,02,11,25,8.30
2022,04,02,11,26,8.30
2022,04,02,11,27,8.30
2022,04,02,11,28,8.30
2022,04,02,11,29,8.30
2022,04,02,11,30,8.30
2022,04,02,11,31,8.40
2022,04,02,11,32,8.40
2022,04,02,11,33,8.40
2022,04,02,11,34,8.40
2022,04,02,11,35,8.40
2022,04,02,11,36,8.40
2022,04,02,11,37,8.40
2022,04,02,11,38,8.40
2022,04,02,11,39,8.50
2022,04,02,11,40,8.40
2022,04,02,11,41,8.50
2022,04,02,11,42,8.50
2022,04,02,11,43,8.50
2022,04,02,11,44,8.50
2022,04,02,11,45,8.50
2022,04,02,11,46,8.50
2022,04,02,11,47,8.50
2022,04,02,11,48,8.50
2022,04,02,11,49,8.50
2022,04,02,11,50,8.50
2022,04,02,11,51,8.50
2022,04,02,11,52,8.50
2022,04,02,11,53,8.50
2022,04,02,11,54,8.60
2022,04,02,11,55,8.60
2022,04,02,11,56,8.60
2022,04,02,11,57,8.60
2022,04,02,11,58,8.60
2022,04,02,11,59,8.60
2022,04,02,12,00,8.60
2022,04,02,12,01,8.70
2022,04,02,12,02,8.70
2022,04,02,12,03,8.70
2022,04,02,12,04,8.70
2022,04,02,12,05,8.80
2022,04,02,12,06,8.80
2022,04,02,12,07,8.80
2022,04,02,12,08,8.90
2022,04,02,12,09,8.90
2022,04,02,12,10,8.90
2022,04,02,12,11,8.90
2022,04,02,12,12,8.90
2022,04,02,12,13,8.90
2022,04,02,12,14,8.90
2022,04,02,12,15,9.00
2022,04,02,12,16,9.00
2022,04,02,12,17,9.00
2022,04,02,12,18,9.10
2022,04,02,12,19,9.10
2022,04,02,12,20,9.10
2022,04,02,12,21,9.10
2022,04,02,12,22,9.10
2022,04,02,12,23,9.20
2022,04,02,12,24,9.20
2022,04,02,12,25,9.20
2022,04,02,12,26,9.20
2022,04,02,12,27,9.30
2022,04,02,12,28,9.30
2022,04,02,12,29,9.40
2022,04,02,12,30,9.40
2022,04,02,12,31,9.40
2022,04,02,12,32,9.40
2022,04,02,12,33,9.40
2022,04,02,12,34,9.50
2022,04,02,12,35,9.50
2022,04,02,12,36,9.50
2022,04,02,12,37,9.50
2022,04,02,12,38,9.50
2022,04,02,12,39,9.50
2022,04,02,12,40,9.50
2022,04,02,12,41,9.60
2022,04,02,12,42,9.60
2022,04,02,12,43,9.60
2022,04,02,12,44,9.60
2022,04,02,12,45,9.60
2022,04,02,12,46,9.70
2022,04,02,12,47,9.70
2022,04,02,12,48,9.70
2022,04,02,12,49,9.70
2022,04,02,12,50,9.80
2022,04,02,12,51,9.80
2022,04,02,12,52,9.80
2022,04,02,12,53,9.80
2022,04,02,12,54,9.80
2022,04,02,12,55,9.80
2022,04,02,12,56,9.90
2022,04,02,12,57,9.90
2022,04,02,12,58,9.90
2022,04,02,12,59,10.00
2022,04,02,13,00,10.00
2022,04,02,13,01,10.00
2022,04,02,13,02,10.00
2022,04,02,13,03,10.00
2022,04,02,13,04,10.00
2022,04,02,13,05,10.00
2022,04,02,13,06,10.00
2022,04,02,13,07,10.00
2022,04,02,13,08,10.00
2022,04,02,13,09,10.00
2022,04,02,13,10,10.00
2022,04,02,13,11,10.00
2022,04,02,13,12,10.00
2022,04,02,13,13,10.00
2022,04,02,13,14,9.90
2022,04,02,13,15,10.00
2022,04,02,13,16,10.00
2022,04,02,13,17,10.00
2022,04,02,13,18,9.90
2022,04,02,13,19,9.90
2022,04,02,13,20,9.90
2022,04,02,13,21,9.90
2022,04,02,13,22,9.90
2022,04,02,13,23,9.90
2022,04,02,13,24,9.90
2022,04,02,13,25,9.90
2022,04,02,13,26,9.90
2022,04,02,13,27,9.90
2022,04,02,13,28,9.90
2022,04,02,13,29,9.90
2022,04,02,13,30,9.90
2022,04,02,13,31,9.90
2022,04,02,13,32,9.90
2022,04,02,13,33,9.90
2022,04,02,13,34,9.90
2022,04,02,13,35,9.90
2022,04,02,13,36,9.90
2022,04,02,13,37,9.90
2022,04,02,13,38,10.00
2022,04,02,13,39,9.90
2022,04,02,13,40,9.90
2022,04,02,13,41,9.90
2022,04,02,13,42,9.90
2022,04,02,13,43,9.80
2022,04,02,13,44,9.80
2022,04,02,13,45,9.70
2022,04,02,13,46,9.70
2022,04,02,13,47,9.60
2022,04,02,13,48,9.60
2022,04,02,13,49,9.50
2022,04,02,13,50,9.50
2022,04,02,13,51,9.50
2022,04,02,13,52,9.40
2022,04,02,13,53,9.40
2022,04,02,13,54,9.40
2022,04,02,13,55,9.40
2022,04,02,13,56,9.40
2022,04,02,13,57,9.40
2022,04,02,13,58,9.40
2022,04,02,13,59,9.40
2022,04,02,14,00,9.30
2022,04,02,14,01,9.30
2022,04,02,14,02,9.30
2022,04,02,14,03,9.20
2022,04,02,14,04,9.20
2022,04,02,14,05,9.20
2022,04,02,14,06,9.20
2022,04,02,14,07,9.20
2022,04,02,14,08,9.20
2022,04,02,14,09,9.20
2022,04,02,14,10,9.20
2022,04,02,14,11,9.20
2022,04,02,14,12,9.20
2022,04,02,14,13,9.10
2022,04,02,14,14,9.10
2022,04,02,14,15,9.20
2022,04,02,14,16,9.20
2022,04,02,14,17,9.20
2022,04,02,14,18,9.10
2022,04,02,14,19,9.10
2022,04,02,14,20,9.10
2022,04,02,14,21,9.20
2022,04,02,14,22,9.20
2022,04,02,14,23,9.20
2022,04,02,14,24,9.20
2022,04,02,14,25,9.20
2022,04,02,14,26,9.20
2022,04,02,14,27,9.20
2022,04,02,14,28,9.30
2022,04,02,14,29,9.30
2022,04,02,14,30,9.30
2022,04,02,14,31,9.30
2022,04,02,14,32,9.30
2022,04,02,14,33,9.40
2022,04,02,14,34,9.40
2022,04,02,14,35,9.40
2022,04,02,14,36,9.40
2022,04,02,14,37,9.40
2022,04,02,14,38,9.50
2022,04,02,14,39,9.40
2022,04,02,14,40,9.50
2022,04,02,14,41,9.50
2022,04,02,14,42,9.50
2022,04,02,14,43,9.50
2022,04,02,14,44,9.50
2022,04,02,14,45,9.50
2022,04,02,14,46,9.50
2022,04,02,14,47,9.50
2022,04,02,14,48,9.60
2022,04,02,14,49,9.50
2022,04,02,14,50,9.60
2022,04,02,14,51,9.60
2022,04,02,14,52,9.60
2022,04,02,14,53,9.60
2022,04,02,14,54,9.60
2022,04,02,14,55,9.60
2022,04,02,14,56,9.60
2022,04,02,14,57,9.60
2022,04,02,14,58,9.60
2022,04,02,14,59,9.60
2022,04,02,15,00,9.60
2022,04,02,15,01,9.60
2022,04,02,15,02,9.60
2022,04,02,15,03,9.60
2022,04,02,15,04,9.60
2022,04,02,15,05,9.60
2022,04,02,15,06,9.50
2022,04,02,15,07,9.50
2022,04,02,15,08,9.50
2022,04,02,15,09,9.50
2022,04,02,15,10,9.50
2022,04,02,15,11,9.50
2022,04,02,15,12,9.60
2022,04,02,15,13,9.50
2022,04,02,15,14,9.50
2022,04,02,15,15,9.50
2022,04,02,15,16,9.50
2022,04,02,15,17,9.50
2022,04,02,15,18,9.50
2022,04,02,15,19,9.50
2022,04,02,15,20,9.50
2022,04,02,15,21,9.50
2022,04,02,15,22,9.50
2022,04,02,15,23,9.50
2022,04,02,15,24,9.50
2022,04,02,15,25,9.50
2022,04,02,15,26,9.50
2022,04,02,15,27,9.40
2022,04,02,15,28,9.40
2022,04,02,15,29,9.40
2022,04,02,15,30,9.40
2022,04,02,15,31,9.40
2022,04,02,15,32,9.40
2022,04,02,15,33,9.40
2022,04,02,15,34,9.40
2022,04,02,15,35,9.40
2022,04,02,15,36,9.40
2022,04,02,15,37,9.40
2022,04,02,15,38,9.40
2022,04,02,15,39,9.40
2022,04,02,15,40,9.40
2022,04,02,15,41,9.30
2022,04,02,15,42,9.40
2022,04,02,15,43,9.40
2022,04,02,15,44,9.40
2022,04,02,15,45,9.30
2022,04,02,15,46,9.40
2022,04,02,15,47,9.30
2022,04,02,15,48,9.30
2022,04,02,15,49,9.30
2022,04,02,15,50,9.30
2022,04,02,15,51,9.30
2022,04,02,15,52,9.30
2022,04,02,15,53,9.30
2022,04,02,15,54,9.20
2022,04,02,15,55,9.20
2022,04,02,15,56,9.20
2022,04,02,15,57,9.20
2022,04,02,15,58,9.20
2022,04,02,15,59,9.20
2022,04,02,16,00,9.20
2022,04,02,16,01,9.20
2022,04,02,16,02,9.20
2022,04,02,16,03,9.20
2022,04,02,16,04,9.20
2022,04,02,16,05,9.20
2022,04,02,16,06,9.20
2022,04,02,16,07,9.20
2022,04,02,16,08,9.20
2022,04,02,16,09,9.20
2022,04,02,16,10,9.20
2022,04,02,16,11,9.20
2022,04,02,16,12,9.20
2022,04,02,16,13,9.20
2022,04,02,16,14,9.20
2022,04,02,16,15,9.20
2022,04,02,16,16,9.20
2022,04,02,16,17,9.30
2022,04,02,16,18,9.30
2022,04,02,16,19,9.30
2022,04,02,16,20,9.30
2022,04,02,16,21,9.40
2022,04,02,16,22,9.40
2022,04,02,16,23,9.40
2022,04,02,16,24,9.40
2022,04,02,16,25,9.40
2022,04,02,16,26,9.40
2022,04,02,16,27,9.40
2022,04,02,16,28,9.40
2022,04,02,16,29,9.40
2022,04,02,16,30,9.40
2022,04,02,16,31,9.40
2022,04,02,16,32,9.50
2022,04,02,16,33,9.50
2022,04,02,16,34,9.50
2022,04,02,16,35,9.50
2022,04,02,16,36,9.50
2022,04,02,16,37,9.50
2022,04,02,16,38,9.60
2022,04,02,16,39,9.60
2022,04,02,16,40,9.60
2022,04,02,16,41,9.60
2022,04,02,16,42,9.60
2022,04,02,16,43,9.60
2022,04,02,16,44,9.60
2022,04,02,16,45,9.60
2022,04,02,16,46,9.60
2022,04,02,16,47,9.60
2022,04,02,16,48,9.60
2022,04,02,16,49,9.60
2022,04,02,16,50,9.60
2022,04,02,16,51,9.60
2022,04,02,16,52,9.60
2022,04,02,16,53,9.60
2022,04,02,16,54,9.60
2022,04,02,16,55,9.60
2022,04,02,16,56,9.60
2022,04,02,16,57,9.50
2022,04,02,16,58,9.60
2022,04,02,16,59,9.60
2022,04,02,17,00,9.60
2022,04,02,17,01,9.40
2022,04,02,17,02,9.40
2022,04,02,17,03,9.30
2022,04,02,17,04,9.20
2022,04,02,17,05,9.20
2022,04,02,17,06,9.20
2022,04,02,17,07,9.20
2022,04,02,17,08,9.20
2022,04,02,17,09,9.20
2022,04,02,17,10,9.20
2022,04,02,17,11,9.20
2022,04,02,17,12,9.20
2022,04,02,17,13,9.20
2022,04,02,17,14,9.10
2022,04,02,17,15,9.10
2022,04,02,17,16,9.10
2022,04,02,17,17,9.10
2022,04,02,17,18,9.10
2022,04,02,17,19,9.10
2022,04,02,17,20,9.10
2022,04,02,17,21,9.10
2022,04,02,17,22,9.10
2022,04,02,17,23,9.10
2022,04,02,17,24,9.10
2022,04,02,17,25,9.10
2022,04,02,17,26,9.10
2022,04,02,17,27,9.10
2022,04,02,17,28,9.10
2022,04,02,17,29,9.10
2022,04,02,17,30,9.10
2022,04,02,17,31,9.10
2022,04,02,17,32,9.10
2022,04,02,17,33,9.10
2022,04,02,17,34,9.10
2022,04,02,17,35,9.20
2022,04,02,17,36,9.20
2022,04,02,17,37,9.20
2022,04,02,17,38,9.20
2022,04,02,17,39,9.30
2022,04,02,17,40,9.30
2022,04,02,17,41,9.30
2022,04,02,17,42,9.30
2022,04,02,17,43,9.30
2022,04,02,17,44,9.30
2022,04,02,17,45,9.30
2022,04,02,17,46,9.20
2022,04,02,17,47,9.20
2022,04,02,17,48,9.20
2022,04,02,17,49,9.20
2022,04,02,17,50,9.20
2022,04,02,17,51,9.20
2022,04,02,17,52,9.20
2022,04,02,17,53,9.20
2022,04,02,17,54,9.20
2022,04,02,17,55,9.20
2022,04,02,17,56,9.20
2022,04,02,17,57,9.20
2022,04,02,17,58,9.20
2022,04,02,17,59,9.20
2022,04,02,18,00,9.20
2022,04,02,18,01,9.20
2022,04,02,18,02,9.10
2022,04,02,18,03,9.20
2022,04,02,18,04,9.10
2022,04,02,18,05,9.10